Regional Weather Roundup
Issued by NWS

Home | Current Version | Previous Version | Text Only | Print | Product List | Glossary Off
Versions: 1 2 3 4 5 6 7 8 9 10 11 12 13 14 15 16 17 18 19 20 21 22 23 24 25 26 27 28 29 30 31 32 33 34 35 36 37 38 39 40 41 42 43 44 45 46 47 48 49 50

000
ASUS43 KTOP 300659
RWRKS

WEATHER ROUNDUP FOR KANSAS
NATIONAL WEATHER SERVICE GOODLAND KS
200 AM CDT TUE MAY 30 2017

NOTE:  "FAIR" INDICATES FEW OR NO CLOUDS BELOW 12,000 FEET WITH NO
SIGNIFICANT WEATHER AND/OR OBSTRUCTIONS TO VISIBILITY.

KSZ001>006-013>018-027>032-041>047-300800-
NORTHWEST KANSAS

CITY           SKY/WX    TMP DP  RH WIND       PRES   REMARKS
GOODLAND       CLEAR     53  47  79 SW12      30.17S
HILL CITY      CLEAR     53  51  93 S3        30.11S
RUSSELL        CLOUDY    55  50  83 NE6       30.08F
$$

KSZ061>065-074>080-084>089-300800-
SOUTHWEST KANSAS

CITY           SKY/WX    TMP DP  RH WIND       PRES   REMARKS
DODGE CITY     LGT RAIN  59  55  87 SW7       30.18F
ELKHART          N/A     54  45  72 MISG        N/A
$$

KSZ066>073-081>083-090>101-300800-
SOUTHEAST KANSAS

CITY           SKY/WX    TMP DP  RH WIND       PRES   REMARKS
CHANUTE        CLEAR     57  53  86 CALM      30.06S
COFFEYVILLE    CLEAR     60  58  92 N3        30.05F
HUTCHINSON     CLOUDY    54  50  86 CALM      30.08S
MEDICINE LODGE   N/A     63  53  70 W3        30.09S
PARSONS        CLEAR     57  54  89 E3        30.07S
WICHITA INTL   CLOUDY    62  54  74 CALM      30.07S
WICHITA JABRA  PTCLDY    63  50  62 S3        30.07S
WINFIELD       MOCLDY    61  53  75 CALM      30.08S
$$

KSZ007>012-019>026-033>040-048>060-102>105-300800-
NORTHEAST KANSAS

CITY           SKY/WX    TMP DP  RH WIND       PRES   REMARKS
EMPORIA        CLEAR     60  51  72 NE3       30.09R
LAWRENCE       PTCLDY    53  50  89 CALM      30.08R
MANHATTAN      CLOUDY    54  50  86 CALM      30.08S
OLATHE IND     CLEAR     59  45  59 CALM      30.08R
OLATHE EXE     PTCLDY    64  43  46 N6        30.07S
SALINA         CLEAR     60  52  74 CALM      30.09R
TOPEKA BILLARD PTCLDY    57  51  80 CALM      30.07S
TOPEKA FORBES  PTCLDY    57  48  72 CALM      30.07S
$$



USA.gov is the U.S. government's official web portal to all federal, state and local government web resources and services.